This is the latest recevied weather packets stored in our database for station/object N7CEE-2. If no packets are shown the sender has not sent any weather packets the latest 10 day(s).
| Time | Temp. | Humidity | Pressure | Rain* | Wind** | Luminosity | Snow |
|---|---|---|---|---|---|---|---|
| 1777129865 | 21.67° C | 31% | 1012.1 hPa | 0 mm | - | 231 W/m² | - |
| 1777129561 | 21.11° C | 31% | 1012.1 hPa | 0 mm | - | 262 W/m² | - |
| 1777129260 | 21.11° C | 30% | 1012.3 hPa | 0 mm | - | 304 W/m² | - |
| 1777128956 | 21.11° C | 31% | 1012 hPa | 0 mm | - | 220 W/m² | - |
| 1777128652 | 20.56° C | 32% | 1012.1 hPa | 0 mm | - | 182 W/m² | - |
| 1777128350 | 21.11° C | 32% | 1011.9 hPa | 0 mm | - | 180 W/m² | - |
| 1777128046 | 20.56° C | 32% | 1012 hPa | 0 mm | - | 231 W/m² | - |
| 1777127744 | 20.56° C | 32% | 1012.1 hPa | 0 mm | - | 215 W/m² | - |
| 1777127441 | 20.56° C | 32% | 1012 hPa | 0 mm | - | 182 W/m² | - |
| 1777127137 | 20.56° C | 32% | 1012 hPa | 0 mm | - | 186 W/m² | - |
| 1777126833 | 20° C | 32% | 1012 hPa | 0 mm | - | 156 W/m² | - |
| 1777126530 | 20° C | 32% | 1012.1 hPa | 0 mm | - | 148 W/m² | - |
| 1777126225 | 20° C | 32% | 1011.9 hPa | 0 mm | - | 147 W/m² | - |
| 1777125921 | 20° C | 33% | 1012 hPa | 0 mm | - | 130 W/m² | - |
| 1777125617 | 19.44° C | 33% | 1011.9 hPa | 0 mm | - | 118 W/m² | - |
| 1777125313 | 19.44° C | 33% | 1011.9 hPa | 0 mm | - | 98 W/m² | - |
| 1777125008 | 18.89° C | 34% | 1011.6 hPa | 0 mm | - | 86 W/m² | - |
| 1777124705 | 18.89° C | 34% | 1011.5 hPa | 0 mm | - | 76 W/m² | - |
| 1777124400 | 18.89° C | 33% | 1011.5 hPa | 0 mm | - | 67 W/m² | - |
| 1777124096 | 18.89° C | 32% | 1011.4 hPa | 0 mm | - | 60 W/m² | - |
| 1777123788 | 18.89° C | 33% | 1011.3 hPa | 0 mm | - | 56 W/m² | - |
| 1777123484 | 18.89° C | 33% | 1011.1 hPa | 0 mm | - | 51 W/m² | - |
| 1777123179 | 18.89° C | 33% | 1011.1 hPa | 0 mm | - | 45 W/m² | - |
| 1777122876 | 18.89° C | 33% | 1010.8 hPa | 0 mm | - | 36 W/m² | - |
| 1777122573 | 18.89° C | 33% | 1010.9 hPa | 0 mm | - | 27 W/m² | - |
* Rain latest hour (hover to see other rain measurements)
** Current wind speed in m/s (hover to see current wind gust speed)